Year,Month,Day,Hour,Minute,Value (Times are PST for windgust in km/hr)
2018,09,02,00,00,24.20
2018,09,02,00,01,29.00
2018,09,02,00,02,24.20
2018,09,02,00,03,24.20
2018,09,02,00,04,25.70
2018,09,02,00,05,27.40
2018,09,02,00,06,27.40
2018,09,02,00,07,29.00
2018,09,02,00,08,30.60
2018,09,02,00,09,27.40
2018,09,02,00,10,27.40
2018,09,02,00,11,30.60
2018,09,02,00,12,27.40
2018,09,02,00,13,27.40
2018,09,02,00,14,29.00
2018,09,02,00,15,29.00
2018,09,02,00,16,24.20
2018,09,02,00,17,27.40
2018,09,02,00,18,29.00
2018,09,02,00,19,25.70
2018,09,02,00,20,25.70
2018,09,02,00,21,27.40
2018,09,02,00,22,24.20
2018,09,02,00,23,29.00
2018,09,02,00,24,29.00
2018,09,02,00,25,25.70
2018,09,02,00,26,27.40
2018,09,02,00,27,29.00
2018,09,02,00,28,27.40
2018,09,02,00,29,25.70
2018,09,02,00,30,25.70
2018,09,02,00,31,27.40
2018,09,02,00,32,32.20
2018,09,02,00,33,25.70
2018,09,02,00,34,27.40
2018,09,02,00,35,27.40
2018,09,02,00,36,25.70
2018,09,02,00,37,27.40
2018,09,02,00,38,25.70
2018,09,02,00,39,25.70
2018,09,02,00,40,25.70
2018,09,02,00,41,27.40
2018,09,02,00,42,27.40
2018,09,02,00,43,27.40
2018,09,02,00,44,27.40
2018,09,02,00,45,22.50
2018,09,02,00,46,25.70
2018,09,02,00,47,25.70
2018,09,02,00,48,25.70
2018,09,02,00,49,27.40
2018,09,02,00,50,27.40
2018,09,02,00,51,29.00
2018,09,02,00,52,27.40
2018,09,02,00,53,29.00
2018,09,02,00,54,27.40
2018,09,02,00,55,29.00
2018,09,02,00,56,27.40
2018,09,02,00,57,27.40
2018,09,02,00,58,27.40
2018,09,02,00,59,27.40
2018,09,02,01,00,25.70
2018,09,02,01,01,29.00
2018,09,02,01,02,29.00
2018,09,02,01,03,27.40
2018,09,02,01,04,27.40
2018,09,02,01,05,27.40
2018,09,02,01,06,29.00
2018,09,02,01,07,29.00
2018,09,02,01,08,29.00
2018,09,02,01,09,27.40
2018,09,02,01,10,27.40
2018,09,02,01,11,27.40
2018,09,02,01,12,29.00
2018,09,02,01,13,27.40
2018,09,02,01,14,27.40
2018,09,02,01,15,29.00
2018,09,02,01,16,29.00
2018,09,02,01,17,29.00
2018,09,02,01,18,25.70
2018,09,02,01,19,29.00
2018,09,02,01,20,27.40
2018,09,02,01,21,25.70
2018,09,02,01,22,27.40
2018,09,02,01,23,27.40
2018,09,02,01,24,25.70
2018,09,02,01,25,27.40
2018,09,02,01,26,22.50
2018,09,02,01,27,25.70
2018,09,02,01,28,24.20
2018,09,02,01,29,24.20
2018,09,02,01,30,22.50
2018,09,02,01,31,22.50
2018,09,02,01,32,27.40
2018,09,02,01,33,24.20
2018,09,02,01,34,25.70
2018,09,02,01,35,22.50
2018,09,02,01,36,22.50
2018,09,02,01,37,27.40
2018,09,02,01,38,27.40
2018,09,02,01,39,25.70
2018,09,02,01,40,24.20
2018,09,02,01,41,27.40
2018,09,02,01,42,25.70
2018,09,02,01,43,25.70
2018,09,02,01,44,24.20
2018,09,02,01,45,29.00
2018,09,02,01,46,25.70
2018,09,02,01,47,27.40
2018,09,02,01,48,25.70
2018,09,02,01,49,29.00
2018,09,02,01,50,25.70
2018,09,02,01,51,25.70
2018,09,02,01,52,27.40
2018,09,02,01,53,27.40
2018,09,02,01,54,27.40
2018,09,02,01,55,25.70
2018,09,02,01,56,27.40
2018,09,02,01,57,27.40
2018,09,02,01,58,25.70
2018,09,02,01,59,27.40
2018,09,02,02,00,27.40
2018,09,02,02,01,27.40
2018,09,02,02,02,24.20
2018,09,02,02,03,27.40
2018,09,02,02,04,25.70
2018,09,02,02,05,25.70
2018,09,02,02,06,25.70
2018,09,02,02,07,25.70
2018,09,02,02,08,25.70
2018,09,02,02,09,25.70
2018,09,02,02,10,25.70
2018,09,02,02,11,25.70
2018,09,02,02,12,22.50
2018,09,02,02,13,24.20
2018,09,02,02,14,27.40
2018,09,02,02,15,24.20
2018,09,02,02,16,27.40
2018,09,02,02,17,29.00
2018,09,02,02,18,27.40
2018,09,02,02,19,30.60
2018,09,02,02,20,27.40
2018,09,02,02,21,24.20
2018,09,02,02,22,25.70
2018,09,02,02,23,25.70
2018,09,02,02,24,25.70
2018,09,02,02,25,27.40
2018,09,02,02,26,27.40
2018,09,02,02,27,25.70
2018,09,02,02,28,24.20
2018,09,02,02,29,24.20
2018,09,02,02,30,25.70
2018,09,02,02,31,27.40
2018,09,02,02,32,25.70
2018,09,02,02,33,27.40
2018,09,02,02,34,24.20
2018,09,02,02,35,25.70
2018,09,02,02,36,29.00
2018,09,02,02,37,27.40
2018,09,02,02,38,29.00
2018,09,02,02,39,29.00
2018,09,02,02,40,24.20
2018,09,02,02,41,24.20
2018,09,02,02,42,20.90
2018,09,02,02,43,25.70
2018,09,02,02,44,25.70
2018,09,02,02,45,24.20
2018,09,02,02,46,27.40
2018,09,02,02,47,25.70
2018,09,02,02,48,24.20
2018,09,02,02,49,20.90
2018,09,02,02,50,20.90
2018,09,02,02,51,25.70
2018,09,02,02,52,25.70
2018,09,02,02,53,25.70
2018,09,02,02,54,24.20
2018,09,02,02,55,24.20
2018,09,02,02,56,24.20
2018,09,02,02,57,24.20
2018,09,02,02,58,22.50
2018,09,02,02,59,24.20
2018,09,02,03,00,22.50
2018,09,02,03,01,22.50
2018,09,02,03,02,24.20
2018,09,02,03,03,24.20
2018,09,02,03,04,25.70
2018,09,02,03,05,24.20
2018,09,02,03,06,25.70
2018,09,02,03,07,22.50
2018,09,02,03,08,24.20
2018,09,02,03,09,22.50
2018,09,02,03,10,24.20
2018,09,02,03,11,24.20
2018,09,02,03,12,17.70
2018,09,02,03,13,24.20
2018,09,02,03,14,22.50
2018,09,02,03,15,22.50
2018,09,02,03,16,22.50
2018,09,02,03,17,20.90
2018,09,02,03,18,20.90
2018,09,02,03,19,17.70
2018,09,02,03,20,16.10
2018,09,02,03,21,20.90
2018,09,02,03,22,19.30
2018,09,02,03,23,19.30
2018,09,02,03,24,20.90
2018,09,02,03,25,19.30
2018,09,02,03,26,19.30
2018,09,02,03,27,19.30
2018,09,02,03,28,20.90
2018,09,02,03,29,20.90
2018,09,02,03,30,22.50
2018,09,02,03,31,19.30
2018,09,02,03,32,22.50
2018,09,02,03,33,20.90
2018,09,02,03,34,20.90
2018,09,02,03,35,19.30
2018,09,02,03,36,20.90
2018,09,02,03,37,22.50
2018,09,02,03,38,20.90
2018,09,02,03,39,22.50
2018,09,02,03,40,19.30
2018,09,02,03,41,19.30
2018,09,02,03,42,19.30
2018,09,02,03,43,17.70
2018,09,02,03,44,19.30
2018,09,02,03,45,19.30
2018,09,02,03,46,17.70
2018,09,02,03,47,17.70
2018,09,02,03,48,16.10
2018,09,02,03,49,19.30
2018,09,02,03,50,16.10
2018,09,02,03,51,19.30
2018,09,02,03,52,19.30
2018,09,02,03,53,24.20
2018,09,02,03,54,24.20
2018,09,02,03,55,24.20
2018,09,02,03,56,22.50
2018,09,02,03,57,22.50
2018,09,02,03,58,27.40
2018,09,02,03,59,27.40
2018,09,02,04,00,25.70
2018,09,02,04,01,29.00
2018,09,02,04,02,25.70
2018,09,02,04,03,27.40
2018,09,02,04,04,27.40
2018,09,02,04,05,25.70
2018,09,02,04,06,25.70
2018,09,02,04,07,22.50
2018,09,02,04,08,27.40
2018,09,02,04,09,24.20
2018,09,02,04,10,24.20
2018,09,02,04,11,22.50
2018,09,02,04,12,22.50
2018,09,02,04,13,22.50
2018,09,02,04,14,24.20
2018,09,02,04,15,17.70
2018,09,02,04,16,17.70
2018,09,02,04,17,20.90
2018,09,02,04,18,20.90
2018,09,02,04,19,22.50
2018,09,02,04,20,22.50
2018,09,02,04,21,24.20
2018,09,02,04,22,24.20
2018,09,02,04,23,19.30
2018,09,02,04,24,19.30
2018,09,02,04,25,20.90
2018,09,02,04,26,25.70
2018,09,02,04,27,22.50
2018,09,02,04,28,20.90
2018,09,02,04,29,19.30
2018,09,02,04,30,22.50
2018,09,02,04,31,27.40
2018,09,02,04,32,24.20
2018,09,02,04,33,22.50
2018,09,02,04,34,22.50
2018,09,02,04,35,24.20
2018,09,02,04,36,24.20
2018,09,02,04,37,22.50
2018,09,02,04,38,25.70
2018,09,02,04,39,25.70
2018,09,02,04,40,25.70
2018,09,02,04,41,24.20
2018,09,02,04,42,25.70
2018,09,02,04,43,22.50
2018,09,02,04,44,22.50
2018,09,02,04,45,22.50
2018,09,02,04,46,22.50
2018,09,02,04,47,20.90
2018,09,02,04,48,17.70
2018,09,02,04,49,16.10
2018,09,02,04,50,16.10
2018,09,02,04,51,16.10
2018,09,02,04,52,19.30
2018,09,02,04,53,19.30
2018,09,02,04,54,16.10
2018,09,02,04,55,14.50
2018,09,02,04,56,12.90
2018,09,02,04,57,14.50
2018,09,02,04,58,14.50
2018,09,02,04,59,19.30
2018,09,02,05,00,17.70
2018,09,02,05,01,19.30
2018,09,02,05,02,19.30
2018,09,02,05,03,16.10
2018,09,02,05,04,19.30
2018,09,02,05,05,22.50
2018,09,02,05,06,24.20
2018,09,02,05,07,22.50
2018,09,02,05,08,22.50
2018,09,02,05,09,24.20
2018,09,02,05,10,22.50
2018,09,02,05,11,24.20
2018,09,02,05,12,25.70
2018,09,02,05,13,25.70
2018,09,02,05,14,27.40
2018,09,02,05,15,27.40
2018,09,02,05,16,25.70
2018,09,02,05,17,25.70
2018,09,02,05,18,24.20
2018,09,02,05,19,20.90
2018,09,02,05,20,20.90
2018,09,02,05,21,22.50
2018,09,02,05,22,24.20
2018,09,02,05,23,24.20
2018,09,02,05,24,25.70
2018,09,02,05,25,29.00
2018,09,02,05,26,27.40
2018,09,02,05,27,24.20
2018,09,02,05,28,24.20
2018,09,02,05,29,24.20
2018,09,02,05,30,22.50
2018,09,02,05,31,22.50
2018,09,02,05,32,25.70
2018,09,02,05,33,29.00
2018,09,02,05,34,27.40
2018,09,02,05,35,24.20
2018,09,02,05,36,17.70
2018,09,02,05,37,17.70
2018,09,02,05,38,20.90
2018,09,02,05,39,17.70
2018,09,02,05,40,19.30
2018,09,02,05,41,25.70
2018,09,02,05,42,29.00
2018,09,02,05,43,29.00
2018,09,02,05,44,29.00
2018,09,02,05,45,27.40
2018,09,02,05,46,24.20
2018,09,02,05,47,17.70
2018,09,02,05,48,17.70
2018,09,02,05,49,16.10
2018,09,02,05,50,12.90
2018,09,02,05,51,9.60
2018,09,02,05,52,8.10
2018,09,02,05,53,6.40
2018,09,02,05,54,8.10
2018,09,02,05,55,17.70
2018,09,02,05,56,20.90
2018,09,02,05,57,19.30
2018,09,02,05,58,19.30
2018,09,02,05,59,17.70
2018,09,02,06,00,19.30
2018,09,02,06,01,19.30
2018,09,02,06,02,17.70
2018,09,02,06,03,22.50
2018,09,02,06,04,20.90
2018,09,02,06,05,14.50
2018,09,02,06,06,19.30
2018,09,02,06,07,19.30
2018,09,02,06,08,24.20
2018,09,02,06,09,25.70
2018,09,02,06,10,24.20
2018,09,02,06,11,24.20
2018,09,02,06,12,22.50
2018,09,02,06,13,24.20
2018,09,02,06,14,22.50
2018,09,02,06,15,19.30
2018,09,02,06,16,20.90
2018,09,02,06,17,25.70
2018,09,02,06,18,27.40
2018,09,02,06,19,25.70
2018,09,02,06,20,25.70
2018,09,02,06,21,24.20
2018,09,02,06,22,29.00
2018,09,02,06,23,32.20
2018,09,02,06,24,27.40
2018,09,02,06,25,27.40
2018,09,02,06,26,24.20
2018,09,02,06,27,24.20
2018,09,02,06,28,27.40
2018,09,02,06,29,27.40
2018,09,02,06,30,25.70
2018,09,02,06,31,22.50
2018,09,02,06,32,22.50
2018,09,02,06,33,20.90
2018,09,02,06,34,20.90
2018,09,02,06,35,20.90
2018,09,02,06,36,20.90
2018,09,02,06,37,19.30
2018,09,02,06,38,19.30
2018,09,02,06,39,24.20
2018,09,02,06,40,24.20
2018,09,02,06,41,24.20
2018,09,02,06,42,22.50
2018,09,02,06,43,20.90
2018,09,02,06,44,22.50
2018,09,02,06,45,22.50
2018,09,02,06,46,24.20
2018,09,02,06,47,20.90
2018,09,02,06,48,22.50
2018,09,02,06,49,25.70
2018,09,02,06,50,25.70
2018,09,02,06,51,24.20
2018,09,02,06,52,25.70
2018,09,02,06,53,25.70
2018,09,02,06,54,27.40
2018,09,02,06,55,32.20
2018,09,02,06,56,32.20
2018,09,02,06,57,30.60
2018,09,02,06,58,27.40
2018,09,02,06,59,27.40
2018,09,02,07,00,27.40
2018,09,02,07,01,27.40
2018,09,02,07,02,29.00
2018,09,02,07,03,30.60
2018,09,02,07,04,30.60
2018,09,02,07,05,29.00
2018,09,02,07,06,29.00
2018,09,02,07,07,30.60
2018,09,02,07,08,29.00
2018,09,02,07,09,29.00
2018,09,02,07,10,27.40
2018,09,02,07,11,25.70
2018,09,02,07,12,25.70
2018,09,02,07,13,25.70
2018,09,02,07,14,25.70
2018,09,02,07,15,25.70
2018,09,02,07,16,24.20
2018,09,02,07,17,25.70
2018,09,02,07,18,24.20
2018,09,02,07,19,22.50
2018,09,02,07,20,24.20
2018,09,02,07,21,24.20
2018,09,02,07,22,22.50
2018,09,02,07,23,24.20
2018,09,02,07,24,24.20
2018,09,02,07,25,25.70
2018,09,02,07,26,25.70
2018,09,02,07,27,27.40
2018,09,02,07,28,25.70
2018,09,02,07,29,27.40
2018,09,02,07,30,25.70
2018,09,02,07,31,24.20
2018,09,02,07,32,24.20
2018,09,02,07,33,24.20
2018,09,02,07,34,27.40
2018,09,02,07,35,27.40
2018,09,02,07,36,24.20
2018,09,02,07,37,27.40
2018,09,02,07,38,25.70
2018,09,02,07,39,27.40
2018,09,02,07,40,29.00
2018,09,02,07,41,32.20
2018,09,02,07,42,27.40
2018,09,02,07,43,27.40
2018,09,02,07,44,27.40
2018,09,02,07,45,29.00
2018,09,02,07,46,27.40
2018,09,02,07,47,24.20
2018,09,02,07,48,25.70
2018,09,02,07,49,22.50
2018,09,02,07,50,24.20
2018,09,02,07,51,22.50
2018,09,02,07,52,24.20
2018,09,02,07,53,25.70
2018,09,02,07,54,27.40
2018,09,02,07,55,29.00
2018,09,02,07,56,27.40
2018,09,02,07,57,27.40
2018,09,02,07,58,27.40
2018,09,02,07,59,27.40
2018,09,02,08,00,27.40
2018,09,02,08,01,25.70
2018,09,02,08,02,29.00
2018,09,02,08,03,29.00
2018,09,02,08,04,29.00
2018,09,02,08,05,27.40
2018,09,02,08,06,29.00
2018,09,02,08,07,29.00
2018,09,02,08,08,29.00
2018,09,02,08,09,29.00
2018,09,02,08,10,32.20
2018,09,02,08,11,27.40
2018,09,02,08,12,29.00
2018,09,02,08,13,25.70
2018,09,02,08,14,29.00
2018,09,02,08,15,27.40
2018,09,02,08,16,29.00
2018,09,02,08,17,29.00
2018,09,02,08,18,25.70
2018,09,02,08,19,27.40
2018,09,02,08,20,27.40
2018,09,02,08,21,27.40
2018,09,02,08,22,25.70
2018,09,02,08,23,22.50
2018,09,02,08,24,24.20
2018,09,02,08,25,24.20
2018,09,02,08,26,24.20
2018,09,02,08,27,27.40
2018,09,02,08,28,29.00
2018,09,02,08,29,27.40
2018,09,02,08,30,29.00
2018,09,02,08,31,29.00
2018,09,02,08,32,29.00
2018,09,02,08,33,27.40
2018,09,02,08,34,27.40
2018,09,02,08,35,25.70
2018,09,02,08,36,29.00
2018,09,02,08,37,29.00
2018,09,02,08,38,29.00
2018,09,02,08,39,30.60
2018,09,02,08,40,29.00
2018,09,02,08,41,29.00
2018,09,02,08,42,27.40
2018,09,02,08,43,29.00
2018,09,02,08,44,29.00
2018,09,02,08,45,27.40
2018,09,02,08,46,29.00
2018,09,02,08,47,25.70
2018,09,02,08,48,25.70
2018,09,02,08,49,27.40
2018,09,02,08,50,29.00
2018,09,02,08,51,27.40
2018,09,02,08,52,29.00
2018,09,02,08,53,29.00
2018,09,02,08,54,25.70
2018,09,02,08,55,25.70
2018,09,02,08,56,25.70
2018,09,02,08,57,25.70
2018,09,02,08,58,25.70
2018,09,02,08,59,29.00
2018,09,02,09,00,32.20
2018,09,02,09,01,30.60
2018,09,02,09,02,29.00
2018,09,02,09,03,27.40
2018,09,02,09,04,25.70
2018,09,02,09,05,25.70
2018,09,02,09,06,24.20
2018,09,02,09,07,24.20
2018,09,02,09,08,25.70
2018,09,02,09,09,27.40
2018,09,02,09,10,25.70
2018,09,02,09,11,27.40
2018,09,02,09,12,27.40
2018,09,02,09,13,24.20
2018,09,02,09,14,24.20
2018,09,02,09,15,27.40
2018,09,02,09,16,27.40
2018,09,02,09,17,25.70
2018,09,02,09,18,27.40
2018,09,02,09,19,24.20
2018,09,02,09,20,22.50
2018,09,02,09,21,22.50
2018,09,02,09,22,25.70
2018,09,02,09,23,24.20
2018,09,02,09,24,24.20
2018,09,02,09,25,24.20
2018,09,02,09,26,24.20
2018,09,02,09,27,24.20
2018,09,02,09,28,24.20
2018,09,02,09,29,24.20
2018,09,02,09,30,20.90
2018,09,02,09,31,20.90
2018,09,02,09,32,22.50
2018,09,02,09,33,22.50
2018,09,02,09,34,22.50
2018,09,02,09,35,22.50
2018,09,02,09,36,20.90
2018,09,02,09,37,22.50
2018,09,02,09,38,20.90
2018,09,02,09,39,20.90
2018,09,02,09,40,22.50
2018,09,02,09,41,20.90
2018,09,02,09,42,22.50
2018,09,02,09,43,22.50
2018,09,02,09,44,24.20
2018,09,02,09,45,24.20
2018,09,02,09,46,22.50
2018,09,02,09,47,20.90
2018,09,02,09,48,20.90
2018,09,02,09,49,20.90
2018,09,02,09,50,20.90
2018,09,02,09,51,22.50
2018,09,02,09,52,20.90
2018,09,02,09,53,17.70
2018,09,02,09,54,19.30
2018,09,02,09,55,19.30
2018,09,02,09,56,22.50
2018,09,02,09,57,20.90
2018,09,02,09,58,20.90
2018,09,02,09,59,20.90
2018,09,02,10,00,24.20
2018,09,02,10,01,24.20
2018,09,02,10,02,20.90
2018,09,02,10,03,24.20
2018,09,02,10,04,24.20
2018,09,02,10,05,24.20
2018,09,02,10,06,22.50
2018,09,02,10,07,25.70
2018,09,02,10,08,24.20
2018,09,02,10,09,24.20
2018,09,02,10,10,24.20
2018,09,02,10,11,22.50
2018,09,02,10,12,20.90
2018,09,02,10,13,22.50
2018,09,02,10,14,24.20
2018,09,02,10,15,24.20
2018,09,02,10,16,27.40
2018,09,02,10,17,24.20
2018,09,02,10,18,27.40
2018,09,02,10,19,27.40
2018,09,02,10,20,25.70
2018,09,02,10,21,24.20
2018,09,02,10,22,25.70
2018,09,02,10,23,24.20
2018,09,02,10,24,25.70
2018,09,02,10,25,24.20
2018,09,02,10,26,24.20
2018,09,02,10,27,22.50
2018,09,02,10,28,22.50
2018,09,02,10,29,19.30
2018,09,02,10,30,24.20
2018,09,02,10,31,24.20
2018,09,02,10,32,25.70
2018,09,02,10,33,20.90
2018,09,02,10,34,22.50
2018,09,02,10,35,19.30
2018,09,02,10,36,20.90
2018,09,02,10,37,22.50
2018,09,02,10,38,20.90
2018,09,02,10,39,19.30
2018,09,02,10,40,19.30
2018,09,02,10,41,19.30
2018,09,02,10,42,17.70
2018,09,02,10,43,17.70
2018,09,02,10,44,20.90
2018,09,02,10,45,19.30
2018,09,02,10,46,19.30
2018,09,02,10,47,19.30
2018,09,02,10,48,17.70
2018,09,02,10,49,19.30
2018,09,02,10,50,17.70
2018,09,02,10,51,17.70
2018,09,02,10,52,14.50
2018,09,02,10,53,16.10
2018,09,02,10,54,17.70
2018,09,02,10,55,17.70
2018,09,02,10,56,17.70
2018,09,02,10,57,17.70
2018,09,02,10,58,17.70
2018,09,02,10,59,17.70
2018,09,02,11,00,17.70
2018,09,02,11,01,19.30
2018,09,02,11,02,20.90
2018,09,02,11,03,19.30
2018,09,02,11,04,20.90
2018,09,02,11,05,16.10
2018,09,02,11,06,19.30
2018,09,02,11,07,17.70
2018,09,02,11,08,19.30
2018,09,02,11,09,17.70
2018,09,02,11,10,19.30
2018,09,02,11,11,17.70
2018,09,02,11,12,17.70
2018,09,02,11,13,19.30
2018,09,02,11,14,19.30
2018,09,02,11,15,16.10
2018,09,02,11,16,16.10
2018,09,02,11,17,17.70
2018,09,02,11,18,17.70
2018,09,02,11,19,16.10
2018,09,02,11,20,16.10
2018,09,02,11,21,16.10
2018,09,02,11,22,14.50
2018,09,02,11,23,17.70
2018,09,02,11,24,17.70
2018,09,02,11,25,16.10
2018,09,02,11,26,17.70
2018,09,02,11,27,19.30
2018,09,02,11,28,19.30
2018,09,02,11,29,19.30
2018,09,02,11,30,17.70
2018,09,02,11,31,17.70
2018,09,02,11,32,16.10
2018,09,02,11,33,17.70
2018,09,02,11,34,16.10
2018,09,02,11,35,17.70
2018,09,02,11,36,19.30
2018,09,02,11,37,17.70
2018,09,02,11,38,17.70
2018,09,02,11,39,17.70
2018,09,02,11,40,17.70
2018,09,02,11,41,17.70
2018,09,02,11,42,20.90
2018,09,02,11,43,17.70
2018,09,02,11,44,19.30
2018,09,02,11,45,16.10
2018,09,02,11,46,17.70
2018,09,02,11,47,19.30
2018,09,02,11,48,19.30
2018,09,02,11,49,17.70
2018,09,02,11,50,19.30
2018,09,02,11,51,16.10
2018,09,02,11,52,17.70
2018,09,02,11,53,19.30
2018,09,02,11,54,17.70
2018,09,02,11,55,19.30
2018,09,02,11,56,19.30
2018,09,02,11,57,17.70
2018,09,02,11,58,19.30
2018,09,02,11,59,20.90
2018,09,02,12,00,16.10
2018,09,02,12,01,17.70
2018,09,02,12,02,16.10
2018,09,02,12,03,16.10
2018,09,02,12,04,17.70
2018,09,02,12,05,17.70
2018,09,02,12,06,17.70
2018,09,02,12,07,17.70
2018,09,02,12,08,19.30
2018,09,02,12,09,16.10
2018,09,02,12,10,17.70
2018,09,02,12,11,16.10
2018,09,02,12,12,16.10
2018,09,02,12,13,16.10
2018,09,02,12,14,16.10
2018,09,02,12,15,17.70
2018,09,02,12,16,17.70
2018,09,02,12,17,17.70
2018,09,02,12,18,16.10
2018,09,02,12,19,17.70
2018,09,02,12,20,17.70
2018,09,02,12,21,14.50
2018,09,02,12,22,17.70
2018,09,02,12,23,16.10
2018,09,02,12,24,16.10
2018,09,02,12,25,14.50
2018,09,02,12,26,16.10
2018,09,02,12,27,17.70
2018,09,02,12,28,16.10
2018,09,02,12,29,17.70
2018,09,02,12,30,17.70
2018,09,02,12,31,20.90
2018,09,02,12,32,20.90
2018,09,02,12,33,22.50
2018,09,02,12,34,14.50
2018,09,02,12,35,16.10
2018,09,02,12,36,19.30
2018,09,02,12,37,20.90
2018,09,02,12,38,19.30
2018,09,02,12,39,17.70
2018,09,02,12,40,20.90
2018,09,02,12,41,20.90
2018,09,02,12,42,17.70
2018,09,02,12,43,19.30
2018,09,02,12,44,20.90
2018,09,02,12,45,22.50
2018,09,02,12,46,20.90
2018,09,02,12,47,20.90
2018,09,02,12,48,22.50
2018,09,02,12,49,20.90
2018,09,02,12,50,22.50
2018,09,02,12,51,22.50
2018,09,02,12,52,22.50
2018,09,02,12,53,22.50
2018,09,02,12,54,20.90
2018,09,02,12,55,20.90
2018,09,02,12,56,22.50
2018,09,02,12,57,22.50
2018,09,02,12,58,24.20
2018,09,02,12,59,22.50
2018,09,02,13,00,24.20
2018,09,02,13,01,24.20
2018,09,02,13,02,22.50
2018,09,02,13,03,22.50
2018,09,02,13,04,22.50
2018,09,02,13,05,20.90
2018,09,02,13,06,24.20
2018,09,02,13,07,24.20
2018,09,02,13,08,22.50
2018,09,02,13,09,22.50
2018,09,02,13,10,25.70
2018,09,02,13,11,27.40
2018,09,02,13,12,25.70
2018,09,02,13,13,25.70
2018,09,02,13,14,25.70
2018,09,02,13,15,29.00
2018,09,02,13,16,25.70
2018,09,02,13,17,27.40
2018,09,02,13,18,24.20
2018,09,02,13,19,27.40
2018,09,02,13,20,25.70
2018,09,02,13,21,25.70
2018,09,02,13,22,24.20
2018,09,02,13,23,22.50
2018,09,02,13,24,22.50
2018,09,02,13,25,24.20
2018,09,02,13,26,24.20
2018,09,02,13,27,22.50
2018,09,02,13,28,19.30
2018,09,02,13,29,20.90
2018,09,02,13,30,20.90
2018,09,02,13,31,16.10
2018,09,02,13,32,16.10
2018,09,02,13,33,16.10
2018,09,02,13,34,16.10
2018,09,02,13,35,16.10
2018,09,02,13,36,16.10
2018,09,02,13,37,19.30
2018,09,02,13,38,19.30
2018,09,02,13,39,19.30
2018,09,02,13,40,19.30
2018,09,02,13,41,20.90
2018,09,02,13,42,20.90
2018,09,02,13,43,20.90
2018,09,02,13,44,20.90
2018,09,02,13,45,22.50
2018,09,02,13,46,22.50
2018,09,02,13,47,24.20
2018,09,02,13,48,22.50
2018,09,02,13,49,24.20
2018,09,02,13,50,24.20
2018,09,02,13,51,24.20
2018,09,02,13,52,22.50
2018,09,02,13,53,20.90
2018,09,02,13,54,20.90
2018,09,02,13,55,19.30
2018,09,02,13,56,20.90
2018,09,02,13,57,19.30
2018,09,02,13,58,22.50
2018,09,02,13,59,20.90
2018,09,02,14,00,20.90
2018,09,02,14,01,19.30
2018,09,02,14,02,22.50
2018,09,02,14,03,16.10
2018,09,02,14,04,17.70
2018,09,02,14,05,16.10
2018,09,02,14,06,16.10
2018,09,02,14,07,14.50
2018,09,02,14,08,16.10
2018,09,02,14,09,16.10
2018,09,02,14,10,17.70
2018,09,02,14,11,16.10
2018,09,02,14,12,16.10
2018,09,02,14,13,17.70
2018,09,02,14,14,16.10
2018,09,02,14,15,16.10
2018,09,02,14,16,17.70
2018,09,02,14,17,19.30
2018,09,02,14,18,17.70
2018,09,02,14,19,19.30
2018,09,02,14,20,14.50
2018,09,02,14,21,19.30
2018,09,02,14,22,19.30
2018,09,02,14,23,20.90
2018,09,02,14,24,19.30
2018,09,02,14,25,19.30
2018,09,02,14,26,20.90
2018,09,02,14,27,19.30
2018,09,02,14,28,17.70
2018,09,02,14,29,19.30
2018,09,02,14,30,17.70
2018,09,02,14,31,20.90
2018,09,02,14,32,19.30
2018,09,02,14,33,20.90
2018,09,02,14,34,19.30
2018,09,02,14,35,20.90
2018,09,02,14,36,20.90
2018,09,02,14,37,19.30
2018,09,02,14,38,16.10
2018,09,02,14,39,16.10
2018,09,02,14,40,16.10
2018,09,02,14,41,16.10
2018,09,02,14,42,17.70
2018,09,02,14,43,17.70
2018,09,02,14,44,17.70
2018,09,02,14,45,16.10
2018,09,02,14,46,16.10
2018,09,02,14,47,17.70
2018,09,02,14,48,19.30
2018,09,02,14,49,22.50
2018,09,02,14,50,22.50
2018,09,02,14,51,22.50
2018,09,02,14,52,24.20
2018,09,02,14,53,25.70
2018,09,02,14,54,22.50
2018,09,02,14,55,24.20
2018,09,02,14,56,25.70
2018,09,02,14,57,25.70
2018,09,02,14,58,22.50
2018,09,02,14,59,22.50
2018,09,02,15,00,22.50
2018,09,02,15,01,20.90
2018,09,02,15,02,22.50
2018,09,02,15,03,24.20
2018,09,02,15,04,20.90
2018,09,02,15,05,22.50
2018,09,02,15,06,17.70
2018,09,02,15,07,17.70
2018,09,02,15,08,16.10
2018,09,02,15,09,14.50
2018,09,02,15,10,12.90
2018,09,02,15,11,19.30
2018,09,02,15,12,22.50
2018,09,02,15,13,22.50
2018,09,02,15,14,22.50
2018,09,02,15,15,19.30
2018,09,02,15,16,20.90
2018,09,02,15,17,20.90
2018,09,02,15,18,22.50
2018,09,02,15,19,24.20
2018,09,02,15,20,22.50
2018,09,02,15,21,22.50
2018,09,02,15,22,24.20
2018,09,02,15,23,25.70
2018,09,02,15,24,29.00
2018,09,02,15,25,30.60
2018,09,02,15,26,27.40
2018,09,02,15,27,29.00
2018,09,02,15,28,27.40
2018,09,02,15,29,25.70
2018,09,02,15,30,29.00
2018,09,02,15,31,25.70
2018,09,02,15,32,27.40
2018,09,02,15,33,27.40
2018,09,02,15,34,25.70
2018,09,02,15,35,27.40
2018,09,02,15,36,27.40
2018,09,02,15,37,30.60
2018,09,02,15,38,29.00
2018,09,02,15,39,32.20
2018,09,02,15,40,29.00
2018,09,02,15,41,27.40
2018,09,02,15,42,29.00
2018,09,02,15,43,27.40
2018,09,02,15,44,24.20
2018,09,02,15,45,27.40
2018,09,02,15,46,25.70
2018,09,02,15,47,25.70
2018,09,02,15,48,25.70
2018,09,02,15,49,30.60
2018,09,02,15,50,27.40
2018,09,02,15,51,32.20
2018,09,02,15,52,30.60
2018,09,02,15,53,35.40
2018,09,02,15,54,33.80
2018,09,02,15,55,33.80
2018,09,02,15,56,33.80
2018,09,02,15,57,33.80
2018,09,02,15,58,35.40
2018,09,02,15,59,33.80
2018,09,02,16,00,35.40
2018,09,02,16,01,32.20
2018,09,02,16,02,33.80
2018,09,02,16,03,33.80
2018,09,02,16,04,32.20
2018,09,02,16,05,33.80
2018,09,02,16,06,35.40
2018,09,02,16,07,33.80
2018,09,02,16,08,32.20
2018,09,02,16,09,32.20
2018,09,02,16,10,32.20
2018,09,02,16,11,30.60
2018,09,02,16,12,30.60
2018,09,02,16,13,27.40
2018,09,02,16,14,25.70
2018,09,02,16,15,24.20
2018,09,02,16,16,27.40
2018,09,02,16,17,22.50
2018,09,02,16,18,25.70
2018,09,02,16,19,25.70
2018,09,02,16,20,25.70
2018,09,02,16,21,24.20
2018,09,02,16,22,24.20
2018,09,02,16,23,20.90
2018,09,02,16,24,19.30
2018,09,02,16,25,22.50
2018,09,02,16,26,25.70
2018,09,02,16,27,25.70
2018,09,02,16,28,24.20
2018,09,02,16,29,27.40
2018,09,02,16,30,24.20
2018,09,02,16,31,25.70
2018,09,02,16,32,29.00
2018,09,02,16,33,27.40
2018,09,02,16,34,29.00
2018,09,02,16,35,25.70
2018,09,02,16,36,29.00
2018,09,02,16,37,29.00
2018,09,02,16,38,24.20
2018,09,02,16,39,25.70
2018,09,02,16,40,20.90
2018,09,02,16,41,22.50
2018,09,02,16,42,25.70
2018,09,02,16,43,20.90
2018,09,02,16,44,24.20
2018,09,02,16,45,24.20
2018,09,02,16,46,25.70
2018,09,02,16,47,29.00
2018,09,02,16,48,29.00
2018,09,02,16,49,30.60
2018,09,02,16,50,24.20
2018,09,02,16,51,24.20
2018,09,02,16,52,25.70
2018,09,02,16,53,24.20
2018,09,02,16,54,25.70
2018,09,02,16,55,25.70
2018,09,02,16,56,25.70
2018,09,02,16,57,30.60
2018,09,02,16,58,27.40
2018,09,02,16,59,30.60
2018,09,02,17,00,30.60
2018,09,02,17,01,32.20
2018,09,02,17,02,35.40
2018,09,02,17,03,33.80
2018,09,02,17,04,32.20
2018,09,02,17,05,33.80
2018,09,02,17,06,33.80
2018,09,02,17,07,32.20
2018,09,02,17,08,38.60
2018,09,02,17,09,35.40
2018,09,02,17,10,33.80
2018,09,02,17,11,37.00
2018,09,02,17,12,40.20
2018,09,02,17,13,38.60
2018,09,02,17,14,40.20
2018,09,02,17,15,40.20
2018,09,02,17,16,46.70
2018,09,02,17,17,43.50
2018,09,02,17,18,41.80
2018,09,02,17,19,41.80